This is the latest recevied weather packets stored in our database for station/object DL3TR-13. If no packets are shown the sender has not sent any weather packets the latest 10 day(s).
| Time | Temp. | Humidity | Pressure | Rain* | Wind** | Luminosity | Snow |
|---|---|---|---|---|---|---|---|
| 1777396991 | 16.67° C | 42% | 1014.1 hPa | 0 mm | - | 32 W/m² | - |
| 1777396391 | 17.22° C | 40% | 1013.8 hPa | 0 mm | - | 46 W/m² | - |
| 1777395791 | 17.22° C | 40% | 1013.7 hPa | 0 mm | - | 67 W/m² | - |
| 1777395191 | 17.78° C | 38% | 1013.5 hPa | 0 mm | - | 84 W/m² | - |
| 1777394591 | 17.78° C | 38% | 1013.5 hPa | 0 mm | - | 111 W/m² | - |
| 1777393991 | 17.78° C | 39% | 1013.5 hPa | 0 mm | - | 120 W/m² | - |
| 1777393392 | 17.78° C | 41% | 1013.5 hPa | 0 mm | - | 135 W/m² | - |
| 1777392791 | 18.33° C | 43% | 1013.4 hPa | 0 mm | - | 165 W/m² | - |
| 1777392191 | 18.33° C | 41% | 1013.4 hPa | 0 mm | - | 174 W/m² | - |
| 1777391591 | 18.33° C | 43% | 1013.4 hPa | 0 mm | - | 165 W/m² | - |
| 1777390991 | 18.89° C | 42% | 1013.2 hPa | 0 mm | - | 193 W/m² | - |
| 1777390391 | 18.89° C | 42% | 1013.3 hPa | 0 mm | - | 234 W/m² | - |
| 1777389791 | 18.89° C | 42% | 1013 hPa | 0 mm | - | 253 W/m² | - |
| 1777389191 | 19.44° C | 43% | 1013.1 hPa | 0 mm | - | 316 W/m² | - |
| 1777388591 | 19.44° C | 41% | 1013.1 hPa | 0 mm | - | 338 W/m² | - |
| 1777387991 | 20° C | 40% | 1013.1 hPa | 0 mm | - | 355 W/m² | - |
| 1777387391 | 20° C | 38% | 1013.1 hPa | 0 mm | - | 469 W/m² | - |
| 1777386791 | 20.56° C | 39% | 1013.2 hPa | 0 mm | - | 471 W/m² | - |
| 1777386191 | 20.56° C | 40% | 1013.1 hPa | 0 mm | - | 589 W/m² | - |
| 1777385591 | 20.56° C | 40% | 1013.3 hPa | 0 mm | - | 496 W/m² | - |
| 1777384991 | 20.56° C | 41% | 1013.3 hPa | 0 mm | - | 504 W/m² | - |
| 1777384391 | 20.56° C | 42% | 1013.4 hPa | 0 mm | - | 533 W/m² | - |
| 1777383791 | 20.56° C | 38% | 1013.4 hPa | 0 mm | - | 578 W/m² | - |
| 1777383191 | 20.56° C | 36% | 1013.6 hPa | 0 mm | - | 624 W/m² | - |
| 1777382591 | 20.56° C | 37% | 1013.7 hPa | 0 mm | - | 647 W/m² | - |
* Rain latest hour (hover to see other rain measurements)
** Current wind speed in m/s (hover to see current wind gust speed)